Change the Weather History Date:

Thursday, August 2, 2012

  Actual Average Record
Temperature  
Mean Temperature 71 °F 69 °F  
Max Temperature 87 °F 85 °F 94 °F (1972)
Min Temperature 54 °F 54 °F 40 °F (1973)
Degree Days  
Heating Degree Days 0 0  
Month to date heating degree days 0 0  
Since 1 June heating degree days 25 125  
Since 1 July heating degree days 0 10  
Cooling Degree Days 6 4  
Month to date cooling degree days 10 9  
Year to date cooling degree days 297 160  
Since 1 June cooling degree days 297 159  
Growing Degree Days 21 (Base 50)    
Moisture  
Dew Point 48 °F    
Average Humidity 51    
Maximum Humidity 77    
Minimum Humidity 25    
Precipitation  
Precipitation T in 0.08 in 1.08 in (2003)
Month to date precipitation T 0.16  
Year to date precipitation 4.41 7.95  
Sea Level Pressure  
Sea Level Pressure 29.98 in    
Wind  
Wind Speed 5 mph (WNW)    
Max Wind Speed 26 mph    
Max Gust Speed 31 mph    
Visibility 10 miles    
Events Rain    
T = Trace of Precipitation, MM = Missing Value Source: NWS Daily Summary

Daily Weather History Graph

Daily Weather History Graph

Search for Another Location

Airport or City:

Trip Planner

Search our weather history database for the weather conditions in past years. The results will help you decide how hot, cold, wet, or windy it might be!

Date:

Astronomy

Aug. 02, 2012 Rise Set
Actual Time 6:17 AM MDT 8:16 PM MDT
Civil Twilight 5:48 AM MDT 8:45 PM MDT
Nautical Twilight 5:13 AM MDT 9:20 PM MDT
Astronomical Twilight 4:36 AM MDT 9:57 PM MDT
Moon 8:27 PM MDT (8/2) 6:55 AM MDT (8/2)
Length of Visible Light 14h 56m
Length of Day
13h 59m
Full, 100% of the Moon is Illuminated
Aug 2
Full
Aug 9
Last Quarter
Aug 17
New
Aug 24
First Quarter
Aug 31
Full

Hourly Weather History & Observations

Time (MDT) Temp. Dew Point Humidity Pressure Visibility Wind Dir Wind Speed Gust Speed Precip Events Conditions
12:53 AM 62.1 °F 50.0 °F 65% 29.99 in 10.0 mi Calm Calm - N/A   Clear
1:53 AM 61.0 °F 48.9 °F 64% 29.99 in 10.0 mi Calm Calm - N/A   Clear
2:53 AM 60.1 °F 48.9 °F 67% 29.98 in 10.0 mi Calm Calm - N/A   Clear
3:53 AM 57.9 °F 48.0 °F 70% 29.98 in 10.0 mi North 3.5 mph - N/A   Clear
4:53 AM 57.9 °F 48.0 °F 70% 29.98 in 10.0 mi NNW 4.6 mph - N/A   Mostly Cloudy
5:53 AM 55.0 °F 48.0 °F 77% 30.00 in 10.0 mi Calm Calm - N/A   Clear
6:53 AM 57.0 °F 46.9 °F 69% 30.01 in 10.0 mi NE 3.5 mph - N/A   Clear
7:53 AM 62.1 °F 48.0 °F 60% 30.02 in 10.0 mi Calm Calm - N/A   Clear
8:53 AM 68.0 °F 48.0 °F 49% 30.02 in 10.0 mi Calm Calm - N/A   Clear
9:53 AM 73.9 °F 46.9 °F 38% 30.01 in 10.0 mi Calm Calm - N/A   Clear
10:53 AM 78.1 °F 46.9 °F 33% 29.99 in 10.0 mi SSW 5.8 mph - N/A   Clear
11:53 AM 82.0 °F 45.0 °F 27% 29.97 in 10.0 mi SSW 11.5 mph 16.1 mph N/A   Clear
12:53 PM 84.9 °F 45.0 °F 25% 29.94 in 10.0 mi SSW 8.1 mph 18.4 mph N/A   Clear
1:53 PM 81.0 °F 46.0 °F 29% 29.96 in 10.0 mi WSW 19.6 mph 25.3 mph 0.00 in Rain Light Rain
2:53 PM 87.1 °F 45.0 °F 23% 29.92 in 10.0 mi WSW 13.8 mph 19.6 mph 0.00 in   Partly Cloudy
4:29 PM 75.2 °F 51.8 °F 44% 30.20 in 10.0 mi WNW 16.1 mph 31.1 mph 0.00 in Rain Light Rain
4:53 PM 75.9 °F 51.1 °F 42% 29.95 in 10.0 mi WNW 12.7 mph - 0.00 in   Partly Cloudy
5:53 PM 79.0 °F 45.0 °F 30% 29.95 in 10.0 mi WNW 11.5 mph - N/A   Clear
6:53 PM 77.0 °F 46.9 °F 34% 29.94 in 10.0 mi NW 6.9 mph - N/A   Clear
7:53 PM 75.0 °F 51.1 °F 43% 29.91 in 10.0 mi Calm Calm - N/A   Clear
8:53 PM 71.1 °F 48.9 °F 45% 29.92 in 10.0 mi NNW 4.6 mph - N/A   Clear
9:53 PM 66.9 °F 50.0 °F 54% 29.94 in 10.0 mi North 5.8 mph - N/A   Clear
10:53 PM 64.0 °F 50.0 °F 60% 29.95 in 10.0 mi Calm Calm - N/A   Clear
11:53 PM 62.1 °F 50.0 °F 65% 29.94 in 10.0 mi Calm Calm - N/A   Clear